Regional Weather Roundup
Issued by NWS Sioux Falls, SD

Home | Current Version | Previous Version | Graphics & Text | Print | Product List | Glossary Off
Versions: 1 2 3 4 5 6 7 8 9 10 11 12 13 14 15 16 17 18 19 20 21 22 23 24 25 26 27 28 29 30 31 32 33 34 35 36 37 38 39 40 41 42 43 44 45 46 47 48 49 50

000
ASUS43 KFSD 050510
RWRFSD

WEATHER ROUNDUP FOR SE SOUTH DAKOTA/SW MINNESOTA/NW IOWA
NATIONAL WEATHER SERVICE SIOUX FALLS SD
1200 AM CDT THU MAY 05 2016

NOTE: "FAIR" INDICATES FEW OR NO CLOUDS BELOW 12,000 FEET WITH NO
SIGNIFICANT WEATHER AND OR OBSTRUCTIONS TO VISIBILITY.


SDZ038>040-050-052>070-050600-
SOUTHEAST SOUTH DAKOTA

CITY           SKY/WX    TMP DP  RH WIND       PRES   REMARKS
BROOKINGS      CLEAR     47  34  60 CALM      30.02S
CHAMBERLAIN    CLEAR     56  45  65 CALM      30.04S
HURON          CLEAR     51  42  71 CALM      30.02R
MADISON        FAIR      48  39  71 NW5       30.03S
MITCHELL       CLEAR     54  41  61 CALM      30.02F
SIOUX FALLS    CLEAR     46  37  71 W3        30.03R
WINNER         FAIR      53  39  59 S6        30.05S
YANKTON        CLEAR     52  37  58 W5        30.03S
$$

MNZ071-072-080-081-089-090-097-098-050600-
SOUTHWEST MINNESOTA

CITY           SKY/WX    TMP DP  RH WIND       PRES   REMARKS
FAIRMONT       CLEAR     52  28  40 CALM      29.99S
JACKSON        CLEAR     48  32  53 NW5       30.01S
LUVERNE        CLEAR     46  34  61 CALM      30.02F
MARSHALL       CLEAR     47  32  56 W6        30.01S
MONTEVIDEO     CLEAR     52  27  37 CALM      30.01S
PIPESTONE      CLEAR     54  28  37 NE3       30.02S
REDWOOD FALLS  CLEAR     56  25  30 N3        29.99S
TRACY          PTCLDY    51  33  49 W3        30.01S
WINDOM         CLEAR     50  30  46 CALM      30.01S
WORTHINGTON    CLEAR     48  36  63 NW6       30.02S
$$

IAZ001>003-012>014-020>022-031-032-NEZ013-014-SDZ071-050600-
NORTHWEST IOWA

CITY           SKY/WX    TMP DP  RH WIND       PRES   REMARKS
CHEROKEE       CLEAR     45  40  82 CALM      30.01S
DENISON        PTCLDY    50  39  66 CALM      29.99S
ESTHERVILLE    CLEAR     45  37  73 NW6       30.00R
LE MARS        CLEAR     48  41  76 CALM      30.03S
ORANGE CITY    CLEAR     57  34  41 N3        30.02S
SHELDON        PTCLDY    46  36  66 NW3       30.01S
SIOUX CITY     CLEAR     52  38  58 CALM      30.02S
SPENCER        CLEAR     44  36  73 NW6       30.01R
STORM LAKE     CLEAR     52  36  54 N10       30.01S
$$

ABBREVIATIONS USED IN REMARKS
   TC - TEMPERATURE IN CELSIUS
  WCI - WIND CHILL INDEX
   HX - HEAT INDEX
  VSB - VISIBILITY





USA.gov is the U.S. government's official web portal to all federal, state and local government web resources and services.